Location: St. Louis
(38.6270°N, 90.1994°W)
Time: 01:12:13
(UTC-06:00)

Transit 2A - Pass Details

Date: 02 December 2021
Orbit: 591 x 966 km, 66.7° (Epoch: 24 January)

Event Time Altitude Azimuth Distance (km) Brightness Sun altitude
Rises 07:30:07 0° 343° (NNW) 3,654 9.0 4.1°
Reaches altitude 10° 07:33:57 10° 5° (N) 2,712 8.6 4.7°
Maximum altitude 07:37:35 15° 40° (NE) 2,323 8.6 5.3°
Drops below altitude 10° 07:41:09 10° 75° (ENE) 2,667 9.5 5.9°
Sets 07:44:51 0° 97° (E) 3,561 10.7 6.5°
